Petit Paris, Belgium

11:23 AM CEST on April 27, 2017 (GMT +0200)
Petit Paris

Weather History for 06447 - January, 2014

Change the Weather History Date:

Friday, January 10, 2014

  Actual Average Record
Temperature  
Mean Temperature 44 °F -  
Max Temperature 47 °F 42 °F - ()
Min Temperature 40 °F 32 °F - ()
Degree Days  
Heating Degree Days 22    
Moisture  
Dew Point 38 °F    
Average Humidity 82    
Maximum Humidity 88    
Minimum Humidity 71    
Precipitation  
Precipitation 0.00 in 0.08 in - ()
Sea Level Pressure  
Sea Level Pressure 30.05 in    
Wind  
Wind Speed 8 mph ()    
Max Wind Speed 11 mph    
Max Gust Speed -    
T = Trace of Precipitation, MM = Missing Value Source: Averaged Metar Reports

Daily Weather History Graph

Daily Weather History Graph

Search for Another Location

Airport or City:

Trip Planner

Search our weather history database for the weather conditions in past years. The results will help you decide how hot, cold, wet, or windy it might be!

Date:

Astronomy

Jan. 10, 2014 Rise Set
Actual Time 8:41 AM CET 4:58 PM CET
Civil Twilight 8:03 AM CET 5:36 PM CET
Nautical Twilight 7:22 AM CET 6:18 PM CET
Astronomical Twilight 6:42 AM CET 6:58 PM CET
Moon 1:02 PM CET (1/10) 3:21 AM CET (1/10)
Length of Visible Light 9h 33m
Length of Day
8h 16m
Waxing Gibbous, 73% of the Moon is Illuminated
Jan 10
Waxing Gibbous
Jan 16
Full
Jan 24
Last Quarter
Jan 30
New
Feb 6
First Quarter

Hourly Weather History & Observations

Time (CET) Temp. Dew Point Humidity Pressure Visibility Wind Dir Wind Speed Gust Speed Precip Events Conditions
2:00 AM 40 °F 36 °F 82% 29.98 in - WSW 6.7 mph - -  
3:00 AM 40 °F 36 °F 82% 29.99 in - SW 6.7 mph - -  
4:00 AM 40 °F 37 °F 87% 30.00 in - SW 8.9 mph - -  
5:00 AM 40 °F 38 °F 88% 30.01 in - WSW 6.7 mph - -  
6:00 AM 41 °F 39 °F 88% 30.01 in - SW 8.9 mph - -  
7:00 AM 41 °F 38 °F 86% 30.02 in - SW 11.2 mph - -  
8:00 AM 40 °F 37 °F 87% 30.03 in - WSW 8.9 mph - -  
9:00 AM 40 °F 37 °F 86% 30.06 in - SW 8.9 mph - -  
10:00 AM 41 °F 38 °F 86% 30.07 in - SW 8.9 mph - -  
11:00 AM 43 °F 40 °F 84% 30.08 in - WSW 8.9 mph - -  
12:00 PM 45 °F 40 °F 78% 30.08 in - SW 8.9 mph - -  
1:00 PM 47 °F 40 °F 71% 30.06 in - SW 8.9 mph - -  
2:00 PM 46 °F 40 °F 72% 30.05 in - SW 8.9 mph - -  
3:00 PM 44 °F 39 °F 76% 30.05 in - SW 8.9 mph - -  
4:00 PM 43 °F 39 °F 81% 30.06 in - SW 8.9 mph - -  
5:00 PM 43 °F 38 °F 77% 30.06 in - SSW 11.2 mph - -  
6:00 PM 42 °F 38 °F 79% 30.07 in - SSW 8.9 mph - -  
7:00 PM 41 °F 37 °F 81% 30.06 in - SSW 11.2 mph - -  
8:00 PM 41 °F 37 °F 81% 30.07 in - SW 8.9 mph - -  
9:00 PM 41 °F 36 °F 78% 30.07 in - SSW 11.2 mph - -  
10:00 PM 40 °F 37 °F 83% 30.06 in - SW 8.9 mph - -  
11:00 PM 40 °F 36 °F 81% 30.06 in - SSW 11.2 mph - -